Location: Tucson
(32.2217°N, 110.9265°W)
Time: 12:01:21
(UTC-07:00)

ISS - Visible Passes

Search period start: 09 December 2019 00:00
Search period end: 19 December 2019 00:00
Orbit: 411 x 421 km, 51.6° (Epoch: 10 December)

Date Brightness Start Highest point End Pass type
(mag) Time Alt. Az. Time Alt. Az. Time Alt. Az.
09 Dec -3.0 19:00:46 10° NW 19:03:13 46° NW 19:03:13 46° NW visible
10 Dec -3.3 18:12:26 10° NNW 18:15:38 40° NE 18:18:06 15° ESE visible
10 Dec -0.4 19:50:21 10° W 19:51:08 12° WSW 19:51:08 12° WSW visible
11 Dec -1.5 19:00:54 10° WNW 19:03:44 26° SW 19:06:35 10° S visible
12 Dec -2.9 18:12:04 10° NW 18:15:21 52° SW 18:18:37 10° SSE visible
14 Dec -0.4 18:12:50 10° W 18:14:48 15° SW 18:16:46 10° SSW visible
18 Dec -0.6 06:49:26 10° S 06:51:57 20° SE 06:54:29 10° ENE visible
